RYR77L LFOB-EDNY

Flight info

Callsign RYR77L
Flight time 0h 55m
Altitude 41000
Route LANVI DCT AMRUP N491 ZUE ZUE1F
Aircraft B736/M-SDE2E3FGHIRWXY/LB1

Departure

Time 2026-04-27 18:19
Airport Beauvais-Tillé airport (LFOB)

Arrival

Time 2026-04-27 19:14
Airport Bodensee Airport Friedrichshafen (EDNY)
Time Latitude Longitude Altitude Speed Heading
2026-04-27 17:55 49.45925 2.11467 354 ft 0 kts 312°
2026-04-27 18:12 49.45925 2.11468 354 ft 0 kts 312°
2026-04-27 18:13 49.45910 2.11492 364 ft 4 kts 311°
2026-04-27 18:13 49.45895 2.11525 358 ft 4 kts 287°
2026-04-27 18:13 49.45894 2.11561 356 ft 4 kts 237°
2026-04-27 18:13 49.45902 2.11576 362 ft 1 kts 221°
2026-04-27 18:14 49.45903 2.11577 362 ft 0 kts 221°
2026-04-27 18:16 49.45888 2.11557 356 ft 7 kts 221°
2026-04-27 18:16 49.45841 2.11502 360 ft 9 kts 200°
2026-04-27 18:17 49.45781 2.11531 359 ft 9 kts 139°
2026-04-27 18:17 49.45732 2.11593 356 ft 9 kts 152°
2026-04-27 18:17 49.45674 2.11590 357 ft 9 kts 209°
2026-04-27 18:17 49.45627 2.11527 352 ft 10 kts 220°
2026-04-27 18:18 49.45569 2.11456 348 ft 12 kts 221°
2026-04-27 18:18 49.45514 2.11364 350 ft 10 kts 223°
2026-04-27 18:18 49.45465 2.11299 344 ft 7 kts 215°
2026-04-27 18:18 49.45424 2.11326 346 ft 8 kts 124°
2026-04-27 18:19 49.45271 2.11667 335 ft 84 kts 127°
2026-04-27 18:19 49.44802 2.12795 350 ft 161 kts 120°
2026-04-27 18:19 49.44181 2.14257 1232 ft 155 kts 123°
2026-04-27 18:19 49.43617 2.15540 2278 ft 149 kts 115°
2026-04-27 18:20 49.43226 2.16952 3095 ft 146 kts 93°
2026-04-27 18:20 49.43431 2.18609 3479 ft 177 kts 65°
2026-04-27 18:20 49.43868 2.20584 3785 ft 215 kts 79°
2026-04-27 18:20 49.44043 2.23045 4055 ft 248 kts 82°
2026-04-27 18:21 49.44222 2.25783 4821 ft 263 kts 83°
2026-04-27 18:21 49.44390 2.28606 5892 ft 268 kts 83°
2026-04-27 18:21 49.44553 2.31498 6894 ft 275 kts 83°
2026-04-27 18:21 49.44707 2.34473 7838 ft 284 kts 87°
2026-04-27 18:22 49.44331 2.37432 8832 ft 291 kts 114°
2026-04-27 18:22 49.43378 2.40192 9880 ft 296 kts 120°
2026-04-27 18:22 49.42331 2.42962 10715 ft 307 kts 121°
2026-04-27 18:22 49.41210 2.45905 11246 ft 327 kts 121°
2026-04-27 18:23 49.40057 2.48964 12095 ft 335 kts 121°
2026-04-27 18:23 49.38891 2.52091 13082 ft 340 kts 121°
2026-04-27 18:23 49.37713 2.55262 14043 ft 345 kts 121°
2026-04-27 18:23 49.36513 2.58492 14920 ft 351 kts 121°
2026-04-27 18:24 49.35296 2.61765 15825 ft 356 kts 121°
2026-04-27 18:24 49.34061 2.65081 16745 ft 361 kts 121°
2026-04-27 18:24 49.32823 2.68403 17633 ft 366 kts 121°
2026-04-27 18:24 49.31549 2.71816 18537 ft 372 kts 121°
2026-04-27 18:25 49.30254 2.75279 19326 ft 377 kts 121°
2026-04-27 18:25 49.28941 2.78785 20136 ft 382 kts 121°
2026-04-27 18:25 49.28496 2.79973 20407 ft 384 kts 121°
2026-04-27 18:25 49.27545 2.82510 20985 ft 387 kts 121°
2026-04-27 18:26 49.26195 2.86108 21800 ft 392 kts 121°
2026-04-27 18:26 49.24828 2.89746 22616 ft 397 kts 121°
2026-04-27 18:26 49.23441 2.93432 23434 ft 402 kts 121°
2026-04-27 18:26 49.22026 2.97191 24156 ft 407 kts 121°
2026-04-27 18:27 49.21203 2.99372 24537 ft 410 kts 121°
2026-04-27 18:27 49.20605 3.00956 24832 ft 411 kts 122°
2026-04-27 18:27 49.20326 3.01694 24977 ft 412 kts 122°
2026-04-27 18:27 49.18880 3.05506 25660 ft 416 kts 123°
2026-04-27 18:28 49.17411 3.08888 26265 ft 419 kts 129°
2026-04-27 18:28 49.15678 3.12363 26913 ft 422 kts 131°
2026-04-27 18:28 49.13834 3.15878 27565 ft 426 kts 132°
2026-04-27 18:29 49.11964 3.19424 28196 ft 431 kts 132°
2026-04-27 18:29 49.10114 3.22971 28803 ft 435 kts 132°
2026-04-27 18:29 49.08233 3.26625 29407 ft 440 kts 131°
2026-04-27 18:29 49.06344 3.30328 29996 ft 445 kts 131°
2026-04-27 18:30 49.04440 3.34076 30508 ft 449 kts 131°
2026-04-27 18:30 49.02522 3.37855 30980 ft 453 kts 132°
2026-04-27 18:30 49.00586 3.41664 31445 ft 457 kts 132°
2026-04-27 18:30 48.98632 3.45501 31890 ft 460 kts 132°
2026-04-27 18:31 48.96661 3.49360 32303 ft 464 kts 133°
2026-04-27 18:31 48.94774 3.53386 32668 ft 474 kts 122°
2026-04-27 18:31 48.93580 3.58113 33016 ft 486 kts 104°
2026-04-27 18:31 48.93177 3.63170 33445 ft 490 kts 96°
2026-04-27 18:32 48.92938 3.68348 33888 ft 492 kts 96°
2026-04-27 18:32 48.92728 3.73546 34291 ft 493 kts 96°
2026-04-27 18:32 48.92505 3.78754 34746 ft 492 kts 96°
2026-04-27 18:32 48.92258 3.83920 35259 ft 489 kts 96°
2026-04-27 18:33 48.91991 3.89057 35743 ft 486 kts 96°
2026-04-27 18:33 48.91711 3.94180 36158 ft 486 kts 96°
2026-04-27 18:33 48.91422 3.99305 36551 ft 486 kts 96°
2026-04-27 18:33 48.91137 4.04339 36975 ft 484 kts 96°
2026-04-27 18:34 48.90849 4.09427 37429 ft 482 kts 96°
2026-04-27 18:34 48.90563 4.14491 37858 ft 481 kts 96°
2026-04-27 18:34 48.90268 4.19545 38260 ft 479 kts 97°
2026-04-27 18:34 48.89509 4.24445 38591 ft 476 kts 115°
2026-04-27 18:35 48.88037 4.28906 38963 ft 471 kts 121°
2026-04-27 18:35 48.86434 4.33236 39247 ft 470 kts 122°
2026-04-27 18:35 48.84798 4.37541 39465 ft 471 kts 122°
2026-04-27 18:35 48.83158 4.41852 39695 ft 472 kts 122°
2026-04-27 18:36 48.81551 4.46113 39973 ft 471 kts 121°
2026-04-27 18:36 48.79939 4.50430 40256 ft 470 kts 121°
2026-04-27 18:36 48.78335 4.54755 40505 ft 470 kts 121°
2026-04-27 18:36 48.76738 4.59079 40738 ft 470 kts 121°
2026-04-27 18:37 48.75142 4.63401 40974 ft 470 kts 121°
2026-04-27 18:37 48.73544 4.67726 41120 ft 472 kts 121°
2026-04-27 18:37 48.70312 4.76450 41104 ft 475 kts 121°
2026-04-27 18:38 48.67110 4.85060 41090 ft 469 kts 121°
2026-04-27 18:38 48.63912 4.93629 41102 ft 467 kts 121°
2026-04-27 18:39 48.60716 5.02159 41101 ft 466 kts 121°
2026-04-27 18:39 48.57520 5.10664 41108 ft 466 kts 121°
2026-04-27 18:40 48.54337 5.19107 41108 ft 466 kts 121°
2026-04-27 18:40 48.51121 5.27611 41114 ft 467 kts 121°
2026-04-27 18:41 48.47890 5.36126 41113 ft 468 kts 121°
2026-04-27 18:41 48.44648 5.44644 41120 ft 469 kts 121°
2026-04-27 18:42 48.41945 5.51725 41118 ft 470 kts 121°
2026-04-27 18:42 48.38148 5.61644 41114 ft 471 kts 121°
2026-04-27 18:43 48.34870 5.70178 41109 ft 471 kts 121°
2026-04-27 18:43 48.31583 5.78714 41110 ft 472 kts 120°
2026-04-27 18:44 48.29118 5.87837 41111 ft 473 kts 108°
2026-04-27 18:44 48.27202 5.96989 41078 ft 448 kts 107°
2026-04-27 18:45 48.26284 6.01390 40885 ft 440 kts 108°
2026-04-27 18:45 48.25342 6.05800 40055 ft 448 kts 109°
2026-04-27 18:45 48.24358 6.10300 39172 ft 459 kts 109°
2026-04-27 18:45 48.23336 6.14891 38253 ft 467 kts 110°
2026-04-27 18:46 48.22289 6.19546 37276 ft 474 kts 110°
2026-04-27 18:46 48.21225 6.24249 36516 ft 477 kts 110°
2026-04-27 18:46 48.20163 6.28932 36031 ft 472 kts 110°
2026-04-27 18:46 48.19111 6.33561 35627 ft 467 kts 111°
2026-04-27 18:47 48.18083 6.38080 35184 ft 463 kts 111°
2026-04-27 18:47 48.17046 6.42625 34700 ft 460 kts 111°
2026-04-27 18:47 48.16011 6.47156 34197 ft 459 kts 111°
2026-04-27 18:47 48.14979 6.51659 33698 ft 456 kts 111°
2026-04-27 18:48 48.13953 6.56130 33284 ft 451 kts 111°
2026-04-27 18:48 48.12939 6.60543 32896 ft 446 kts 111°
2026-04-27 18:48 48.11932 6.64912 32494 ft 442 kts 111°
2026-04-27 18:48 48.10935 6.69232 32070 ft 439 kts 111°
2026-04-27 18:49 48.09939 6.73534 31678 ft 435 kts 111°
2026-04-27 18:49 48.08954 6.77783 31292 ft 430 kts 111°
2026-04-27 18:49 48.07989 6.81938 30917 ft 427 kts 111°
2026-04-27 18:49 48.07017 6.86114 30544 ft 423 kts 111°
2026-04-27 18:50 48.06052 6.90255 30171 ft 420 kts 111°
2026-04-27 18:50 48.05093 6.94358 29740 ft 416 kts 111°
2026-04-27 18:50 48.04143 6.98419 29297 ft 413 kts 111°
2026-04-27 18:50 48.03196 7.02459 28825 ft 410 kts 111°
2026-04-27 18:51 48.02254 7.06468 28351 ft 408 kts 111°
2026-04-27 18:51 48.01317 7.10450 27916 ft 405 kts 111°
2026-04-27 18:51 48.00386 7.14400 27489 ft 402 kts 111°
2026-04-27 18:51 47.99461 7.18318 27040 ft 399 kts 111°
2026-04-27 18:52 47.98538 7.22218 26607 ft 397 kts 111°
2026-04-27 18:52 47.97622 7.26083 26209 ft 394 kts 111°
2026-04-27 18:52 47.96709 7.29930 25778 ft 392 kts 111°
2026-04-27 18:53 47.94910 7.37487 25009 ft 387 kts 111°
2026-04-27 18:53 47.94009 7.41259 24627 ft 384 kts 111°
2026-04-27 18:53 47.93115 7.45001 24241 ft 382 kts 111°
2026-04-27 18:53 47.92223 7.48724 23870 ft 380 kts 111°
2026-04-27 18:54 47.91335 7.52427 23453 ft 378 kts 111°
2026-04-27 18:54 47.90451 7.56103 23037 ft 375 kts 111°
2026-04-27 18:54 47.89573 7.59750 22658 ft 372 kts 111°
2026-04-27 18:54 47.88716 7.63308 22267 ft 369 kts 111°
2026-04-27 18:55 47.87852 7.66887 21871 ft 366 kts 111°
2026-04-27 18:55 47.86992 7.70442 21479 ft 363 kts 111°
2026-04-27 18:55 47.86138 7.73966 21105 ft 361 kts 111°
2026-04-27 18:55 47.85290 7.77460 20756 ft 357 kts 111°
2026-04-27 18:56 47.84448 7.80925 20391 ft 355 kts 111°
2026-04-27 18:56 47.83611 7.84366 20048 ft 352 kts 111°
2026-04-27 18:56 47.82778 7.87784 19695 ft 350 kts 111°
2026-04-27 18:56 47.81951 7.91172 19346 ft 347 kts 111°
2026-04-27 18:57 47.81129 7.94534 19014 ft 344 kts 111°
2026-04-27 18:57 47.80312 7.97875 18683 ft 342 kts 111°
2026-04-27 18:57 47.79510 8.01149 18332 ft 340 kts 111°
2026-04-27 18:57 47.78690 8.04487 17944 ft 338 kts 111°
2026-04-27 18:58 47.77898 8.07705 17568 ft 335 kts 111°
2026-04-27 18:58 47.77359 8.09897 17310 ft 334 kts 111°
2026-04-27 18:58 47.76308 8.14170 16814 ft 330 kts 111°
2026-04-27 18:58 47.75520 8.17367 16455 ft 328 kts 111°
2026-04-27 18:59 47.74738 8.20542 16082 ft 326 kts 111°
2026-04-27 18:59 47.73961 8.23690 15719 ft 324 kts 111°
2026-04-27 18:59 47.73186 8.26828 15371 ft 322 kts 111°
2026-04-27 18:59 47.72417 8.29937 15026 ft 320 kts 111°
2026-04-27 19:00 47.71652 8.33023 14673 ft 318 kts 111°
2026-04-27 19:00 47.70882 8.36129 14121 ft 323 kts 111°
2026-04-27 19:00 47.70116 8.39214 13699 ft 322 kts 111°
2026-04-27 19:00 47.69343 8.42317 13307 ft 319 kts 111°
2026-04-27 19:01 47.68574 8.45387 13035 ft 313 kts 111°
2026-04-27 19:01 47.67811 8.48376 12755 ft 308 kts 111°
2026-04-27 19:01 47.67053 8.51330 12405 ft 305 kts 111°
2026-04-27 19:01 47.66301 8.54256 12075 ft 303 kts 111°
2026-04-27 19:02 47.65555 8.57158 11727 ft 301 kts 111°
2026-04-27 19:02 47.64814 8.60044 11386 ft 299 kts 111°
2026-04-27 19:02 47.64074 8.62920 11042 ft 297 kts 111°
2026-04-27 19:02 47.63350 8.65732 10692 ft 296 kts 112°
2026-04-27 19:03 47.62618 8.68573 10353 ft 294 kts 112°
2026-04-27 19:03 47.61896 8.71375 10164 ft 287 kts 112°
2026-04-27 19:03 47.61183 8.74138 9812 ft 286 kts 112°
2026-04-27 19:03 47.60702 8.75996 9586 ft 285 kts 111°
2026-04-27 19:04 47.59765 8.79615 9135 ft 283 kts 111°
2026-04-27 19:04 47.59117 8.82365 8785 ft 282 kts 103°
2026-04-27 19:04 47.58809 8.85230 8439 ft 281 kts 96°
2026-04-27 19:04 47.58625 8.88108 8106 ft 280 kts 95°
2026-04-27 19:05 47.58459 8.90975 7774 ft 278 kts 95°
2026-04-27 19:05 47.58285 8.93821 7461 ft 276 kts 95°
2026-04-27 19:05 47.58102 8.96644 7148 ft 274 kts 95°
2026-04-27 19:05 47.57977 8.98493 6942 ft 273 kts 95°
2026-04-27 19:06 47.57836 9.00532 6729 ft 271 kts 95°
2026-04-27 19:06 47.57641 9.03293 6503 ft 266 kts 95°
2026-04-27 19:06 47.57448 9.05984 6292 ft 259 kts 95°
2026-04-27 19:06 47.57261 9.08556 6147 ft 243 kts 95°
2026-04-27 19:07 47.57085 9.10972 6034 ft 229 kts 96°
2026-04-27 19:07 47.56918 9.13249 5940 ft 216 kts 96°
2026-04-27 19:07 47.56760 9.15387 5848 ft 202 kts 96°
2026-04-27 19:07 47.56606 9.17449 5787 ft 201 kts 96°
2026-04-27 19:08 47.56456 9.19465 5604 ft 197 kts 96°
2026-04-27 19:08 47.56309 9.21438 5386 ft 189 kts 96°
2026-04-27 19:08 47.56344 9.23339 5166 ft 185 kts 69°
2026-04-27 19:08 47.56957 9.24979 5030 ft 181 kts 60°
2026-04-27 19:09 47.57576 9.26575 4829 ft 177 kts 61°
2026-04-27 19:09 47.58185 9.28148 4623 ft 174 kts 60°
2026-04-27 19:09 47.58771 9.29655 4433 ft 165 kts 60°
2026-04-27 19:09 47.59328 9.31085 4251 ft 159 kts 60°
2026-04-27 19:10 47.59882 9.32505 4076 ft 158 kts 60°
2026-04-27 19:10 47.60425 9.33899 3858 ft 153 kts 61°
2026-04-27 19:10 47.60935 9.35208 3646 ft 145 kts 60°
2026-04-27 19:10 47.61272 9.36073 3540 ft 142 kts 61°
2026-04-27 19:11 47.61900 9.37683 3286 ft 132 kts 61°
2026-04-27 19:11 47.62353 9.38849 3112 ft 130 kts 61°
2026-04-27 19:11 47.62803 9.40005 2939 ft 129 kts 60°
2026-04-27 19:11 47.63243 9.41133 2820 ft 124 kts 60°
2026-04-27 19:12 47.63684 9.42265 2599 ft 130 kts 60°
2026-04-27 19:12 47.64131 9.43415 2417 ft 128 kts 60°
2026-04-27 19:12 47.64574 9.44555 2240 ft 131 kts 59°
2026-04-27 19:12 47.65029 9.45724 2059 ft 131 kts 59°
2026-04-27 19:13 47.65480 9.46886 1878 ft 130 kts 59°
2026-04-27 19:13 47.65934 9.48051 1707 ft 132 kts 60°
2026-04-27 19:13 47.66388 9.49221 1518 ft 130 kts 59°
2026-04-27 19:13 47.66821 9.50379 1375 ft 121 kts 59°
2026-04-27 19:14 47.67137 9.51161 1376 ft 63 kts 60°
2026-04-27 19:14 47.67338 9.51682 1372 ft 54 kts 64°
2026-04-27 19:14 47.67433 9.51930 1372 ft 18 kts 59°
2026-04-27 19:14 47.67464 9.52050 1373 ft 12 kts 107°
2026-04-27 19:15 47.67415 9.52116 1375 ft 6 kts 155°
2026-04-27 19:15 47.67380 9.52136 1373 ft 5 kts 180°
2026-04-27 19:15 47.67370 9.52133 1373 ft 1 kts 191°
2026-04-27 19:15 47.67355 9.52128 1375 ft 4 kts 191°
2026-04-27 19:16 47.67338 9.52159 1373 ft 5 kts 81°
2026-04-27 19:16 47.67344 9.52175 1373 ft 5 kts 54°
2026-04-27 19:16 47.67364 9.52211 1375 ft 3 kts 55°
2026-04-27 19:16 47.67371 9.52235 1375 ft 2 kts 67°
2026-04-27 19:17 47.67377 9.52266 1373 ft 4 kts 92°
2026-04-27 19:17 47.67360 9.52295 1375 ft 4 kts 144°
2026-04-27 19:17 47.67342 9.52306 1373 ft 1 kts 168°
2026-04-27 19:17 47.67336 9.52306 1374 ft 1 kts 174°
2026-04-27 19:18 47.67332 9.52307 1374 ft 0 kts 174°